Weather Roundup
Issued by NWS

Home | Current Version | Previous Version | Graphics & Text | Print | Product List | Glossary Off
Versions: 1 2 3 4 5 6 7 8 9 10 11 12 13 14 15 16 17 18 19 20 21 22 23 24 25 26 27 28 29 30 31 32 33 34 35 36 37 38 39 40 41 42 43 44 45 46 47 48 49 50

000
NZUS93 KARX 271559
HRRWXR

CURRENT HOURLY OBSERVATIONS ACROSS
MUCH OF THE UPPER MISSISSIPPI VALLEY
NATIONAL WEATHER SERVICE LA CROSSE WI
1100 AM CDT WED JUL 27 2016


...SOUTHEAST MINNESOTA...


CITY           SKY/WX    TMP DP  RH WIND       PRES   REMARKS
ROCHESTER      CLOUDY    78  68  71 S3        30.00F
ROCHESTER/MAYO FAIR      77  65  66 S6        30.00F
WINONA         MOSUNNY   81  64  57 CALM      29.99F
AUSTIN         CLOUDY    75  66  73 S7        30.00R
ALBERT LEA     PTSUNNY   75  68  78 S10       29.99F
DODGE CENTER   CLOUDY    79  66  65 S9        30.00S
PRESTON        CLOUDY    78  65  63 S6        30.01F
OWATONNA       CLOUDY    79  68  69 SE9       29.98S
FARIBAULT      MOSUNNY   79  70  73 S5        29.97F
$$

...ELSEWHERE IN MINNESOTA...


CITY           SKY/WX    TMP DP  RH WIND       PRES   REMARKS
MINNEAPOLIS    CLOUDY    79  68  69 SE5       29.95F
INTNL FALLS    PTSUNNY   68  58  70 NE9       30.05S
DULUTH         CLOUDY    66  56  70 NE16G23   30.02R
RED WING       CLOUDY    81  70  69 SE5       29.96S
REDWOOD FALLS  CLOUDY    74  67  78 NW9       29.96S
MANKATO        CLOUDY    79  66  65 S9        29.96R
WORTHINGTON    PTSUNNY   75  67  76 W6        30.01R
FAIRMONT       CLOUDY    72  66  83 S9        29.98R
$$

...SOUTHWEST WISCONSIN...


CITY           SKY/WX    TMP DP  RH WIND       PRES   REMARKS
LA CROSSE      SUNNY     84  68  58 VRB3      30.00S
PRAIRIE DU CHI SUNNY     80  66  61 S3        30.02F
BOSCOBEL       MOSUNNY   83  68  60 W9        30.03S
LONE ROCK      NOT AVBL
PLATTEVILLE    SUNNY     79  70  74 CALM      30.05S
FORT MC COY    MOSUNNY   80  69  68 CALM      30.02F
MAUSTON-NEW LI SUNNY     81  71  73 NW6       30.02R
VIROQUA        FAIR      80  65  60 W3        30.04F
WIS DELLS      NOT AVBL
$$

...ELSEWHERE IN WISCONSIN...


CITY           SKY/WX    TMP DP  RH WIND       PRES   REMARKS
MILWAUKEE      PTSUNNY   86  68  54 NW5       30.00S
MADISON        PTSUNNY   83  68  60 W3        30.02R
GREEN BAY      PTSUNNY   81  69  67 NW6       30.02R
EAU CLAIRE     NOT AVBL
BLACK RVR FLS  FAIR      81  66  60 CALM      30.00F
MEDFORD        CLOUDY    66  66 100 SE3       30.03S
WAUSAU         CLOUDY    68  64  87 E3        30.03S
WIS RAPIDS     CLOUDY    75  62  64 NE14      30.04S
MARSHFIELD     CLOUDY    77  65  66 NE8       30.03F
RICE LAKE      PTSUNNY   71  63  75 SE7       30.02F
$$

...NORTHEAST IOWA...


CITY           SKY/WX    TMP DP  RH WIND       PRES   REMARKS
WATERLOO       CLOUDY    80  66  62 S6        30.00F
DUBUQUE        SUNNY     80  65  59 S3        30.05S
DECORAH        MOSUNNY   79  68  69 CALM      30.01F
MASON CITY     CLOUDY    76  68  76 S6        30.03R
CHARLES CITY   CLOUDY    77  70  78 VRB3      30.02R
OELWEIN        MOSUNNY   79  68  69 SE5       30.02F
$$

...ELSEWHERE IN IOWA...


CITY           SKY/WX    TMP DP  RH WIND       PRES   REMARKS
DES MOINES     CLOUDY    80  68  66 S8        30.00S
IOWA CITY      MOSUNNY   82  68  62 VRB3      30.02S
FORT DODGE     CLOUDY    72  68  88 S6        30.02F
MARSHALLTOWN   MOSUNNY   81  67  62 S8        30.01S
CEDAR RAPIDS   MOSUNNY   81  69  67 SE6       30.01S
$$

...NORTHERN ILLINOIS...


CITY           SKY/WX    TMP DP  RH WIND       PRES   REMARKS
CHICAGO-OHARE  MOSUNNY   85  63  47 CALM      30.01R
CHICAGO-MIDWAY MOSUNNY   87  63  44 CALM      30.01S
MOLINE         SUNNY     83  70  64 VRB6      30.01S
ROCKFORD       MOSUNNY   82  63  52 S5        30.04R
PEORIA         SUNNY     82  69  64 S6        30.03R
$$

NOTE: "FAIR" INDICATES FEW OR NO CLOUDS BELOW 12,000 FEET WITH NO
SIGNIFICANT WEATHER AND/OR OBSTRUCTIONS TO VISIBILITY. WIND
SPEEDS ARE IN MILES-PER-HOUR.




USA.gov is the U.S. government's official web portal to all federal, state and local government web resources and services.